Weather History for Muscle Shoals, AL

Change the Weather History Date:

Monday, February 18, 2013

  Actual Average Record
Temperature  
Mean Temperature 50 °F 46 °F  
Max Temperature 63 °F 56 °F 76 °F (2000)
Min Temperature 37 °F 36 °F -2 °F (1958)
Degree Days  
Heating Degree Days 15 19  
Month to date heating degree days 352 379  
Since 1 July heating degree days 2025 2359  
Cooling Degree Days 0 0  
Month to date cooling degree days 0 0  
Year to date cooling degree days 7 0  
Moisture  
Dew Point 33 °F    
Average Humidity 56    
Maximum Humidity 77    
Minimum Humidity 34    
Precipitation  
Precipitation 0.27 in 0.16 in 4.41 in (1991)
Month to date precipitation 1.56 2.96  
Year to date precipitation 10.30 7.57  
Snow  
Snow 0.00 in - - ()
Month to date snowfall T  
Since 1 July snowfall T  
Snow Depth 0.00 in    
Sea Level Pressure  
Sea Level Pressure 30.09 in    
Wind  
Wind Speed 14 mph (South)    
Max Wind Speed 28 mph    
Max Gust Speed 45 mph    
Visibility 9 miles    
Events Rain    
T = Trace of Precipitation, MM = Missing Value Source: NWS Daily Summary

Daily Weather History Graph

Daily Weather History Graph

Search for Another Location

Airport:

Trip Planner

Search our weather history database for the weather conditions in past years. The results will help you decide how hot, cold, wet, or windy it might be!

Date:

Astronomy

Feb. 18, 2013 Rise Set
Actual Time 6:32 AM CST 5:36 PM CST
Civil Twilight 6:06 AM CST 6:02 PM CST
Nautical Twilight 5:37 AM CST 6:31 PM CST
Astronomical Twilight 5:08 AM CST 7:01 PM CST
Moon 11:29 AM CST (2/18) 1:05 AM CST (2/18)
Length of Visible Light 11h 55m
Length of Day
11h 04m
First Quarter, 58% of the Moon is Illuminated
Feb 18
First Quarter
Feb 25
Full
Mar 4
Last Quarter
Mar 11
New
Mar 19
First Quarter

Hourly Weather History & Observations

Time (CST) Temp. Windchill Dew Point Humidity Pressure Visibility Wind Dir Wind Speed Gust Speed Precip Events Conditions
12:53 AM 39.0 °F 34.8 °F 21.0 °F 49% 30.20 in 10.0 mi SSE 5.8 mph - N/A   Clear
1:53 AM 39.9 °F 35.8 °F 21.0 °F 47% 30.19 in 10.0 mi SSE 5.8 mph - N/A   Clear
2:53 AM 42.1 °F 37.1 °F 23.0 °F 47% 30.19 in 10.0 mi South 8.1 mph - N/A   Clear
3:53 AM 42.1 °F 37.7 °F 26.1 °F 53% 30.19 in 10.0 mi South 6.9 mph - N/A   Clear
4:53 AM 39.9 °F 37.8 °F 27.0 °F 60% 30.21 in 10.0 mi SSE 3.5 mph - N/A   Clear
5:53 AM 37.9 °F 32.7 °F 28.0 °F 68% 30.22 in 10.0 mi SSE 6.9 mph - N/A   Clear
6:53 AM 39.0 °F 34.0 °F 28.9 °F 67% 30.23 in 10.0 mi SSE 6.9 mph - N/A   Clear
7:53 AM 43.0 °F 38.8 °F 32.0 °F 65% 30.24 in 10.0 mi South 6.9 mph - N/A   Clear
8:53 AM 48.0 °F - 33.1 °F 56% 30.24 in 10.0 mi South 10.4 mph - N/A   Clear
9:53 AM 55.0 °F - 33.1 °F 43% 30.22 in 10.0 mi SSW 12.7 mph 21.9 mph N/A   Clear
10:53 AM 57.9 °F - 33.1 °F 39% 30.19 in 10.0 mi South 21.9 mph 31.1 mph N/A   Clear
11:53 AM 61.0 °F - 34.0 °F 36% 30.14 in 10.0 mi South 21.9 mph 27.6 mph N/A   Clear
12:53 PM 63.0 °F - 34.0 °F 34% 30.10 in 10.0 mi South 23.0 mph 28.8 mph N/A   Clear
1:53 PM 62.1 °F - 35.1 °F 37% 30.07 in 10.0 mi South 16.1 mph 26.5 mph N/A   Mostly Cloudy
2:53 PM 62.1 °F - 34.0 °F 35% 30.03 in 10.0 mi South 13.8 mph 25.3 mph N/A   Overcast
3:53 PM 61.0 °F - 32.0 °F 34% 30.00 in 10.0 mi South 19.6 mph 29.9 mph N/A   Overcast
4:53 PM 60.1 °F - 34.0 °F 38% 29.96 in 10.0 mi South 12.7 mph 29.9 mph N/A   Mostly Cloudy
5:53 PM 59.0 °F - 34.0 °F 39% 29.95 in 10.0 mi South 15.0 mph 24.2 mph N/A   Overcast
6:53 PM 59.0 °F - 35.1 °F 41% 29.94 in 10.0 mi South 15.0 mph 25.3 mph N/A   Overcast
7:53 PM 60.1 °F - 36.0 °F 41% 29.91 in 10.0 mi South 28.8 mph 44.9 mph N/A   Overcast
8:53 PM 57.0 °F - 39.9 °F 53% 29.90 in 10.0 mi South 21.9 mph 28.8 mph 0.00 in Rain Light Rain
9:53 PM 54.0 °F - 43.0 °F 66% 29.90 in 8.0 mi South 17.3 mph 26.5 mph 0.06 in Rain Light Rain
10:53 PM 51.1 °F - 45.0 °F 80% 29.94 in 5.0 mi SSW 13.8 mph - 0.07 in Rain Rain
11:38 PM 50.0 °F - 46.4 °F 87% 30.01 in 4.0 mi WNW 13.8 mph 28.8 mph 0.12 in Rain Heavy Rain
11:53 PM 50.0 °F - 46.0 °F 86% 29.99 in 8.0 mi West 9.2 mph - 0.14 in Rain Light Rain